PulseSat

PulseSat

RADUGA 12 [-]

Last updated on Jan. 16, 2019, 2:58 a.m. UTC

1 13974U 83028A   19014.91196251 -.00000141  00000-0  00000-0 0  9991
2 13974  13.3520 331.3054 0005373 344.1564 206.4806  1.00293255142206
UTC
Height (km)
Latitude
Longitude
Inclination
Orbital Period

Next 30 passes for location: Hong Kong

Rise time Rise Azimuth (degrees) Set time Set Azimuth (degrees) Duration Max altitude (degrees)

No matching passes for this satellites

PulseSat

PulseSat is the new satellites software and hardware trackering solution by Pulsely.
Satellite Two Line Element Set source: US Air Force Space Command

Download PulseSat for iOS
© 2017 Pulsely Limited